Starlink 34399

operational
NORAD ID: 64444 Int'l Des: 2025-130 Owner: SPXS Country: US Constellation: starlink
LEOCIRCULAR

Starlink 34399について

説明を読み込み中...

リアルタイム位置

3D地球を読み込み中...

次回通過

高度履歴

Altitude vs Time

uPlot chart will show altitude changes over time

軌道要素

1 64444U 25130G 25340.76524460 .00027237 00000-0 92780-3 0 9991
2 64444 53.1600 160.3250 0001337 65.2496 294.8644 15.30219888 26473
Epoch: Dec 6, 2025 • Age: 13 hours

現在のステータス

高度 475.4 km
速度 7.63 km/s
衛星直下点 25.69°N, 3.16°W
打ち上げ日 Jun 18, 2025
運用期間 0.4 years
タイプ internet

技術仕様

分類 Payload
質量 575.00 kg
乾燥質量 530.00 kg
総質量 575.00 kg
長さ 0.30 m
直径 4.10 m
スパン 29.00 m
形状 Box + pan
製造者 SPXS
バスタイプ Starlink V2MO
フェーズステータス In Orbit
所有者/国 SPXS/US

大規模コンステレーション

Loading constellations...